Year,Month,Day,Hour,Minute,Value (Times are PST for temperature in C)
2022,02,26,00,00,-10.50
2022,02,26,00,01,-10.50
2022,02,26,00,02,-10.50
2022,02,26,00,03,-10.50
2022,02,26,00,04,-10.40
2022,02,26,00,05,-10.40
2022,02,26,00,06,-10.40
2022,02,26,00,07,-10.40
2022,02,26,00,08,-10.40
2022,02,26,00,09,-10.40
2022,02,26,00,10,-10.40
2022,02,26,00,11,-10.50
2022,02,26,00,12,-10.50
2022,02,26,00,13,-10.50
2022,02,26,00,14,-10.50
2022,02,26,00,15,-10.50
2022,02,26,00,16,-10.50
2022,02,26,00,17,-10.50
2022,02,26,00,18,-10.50
2022,02,26,00,19,-10.50
2022,02,26,00,20,-10.50
2022,02,26,00,21,-10.60
2022,02,26,00,22,-10.60
2022,02,26,00,23,-10.60
2022,02,26,00,24,-10.60
2022,02,26,00,25,-10.60
2022,02,26,00,26,-10.60
2022,02,26,00,27,-10.60
2022,02,26,00,28,-10.60
2022,02,26,00,29,-10.60
2022,02,26,00,30,-10.50
2022,02,26,00,31,-10.50
2022,02,26,00,32,-10.50
2022,02,26,00,33,-10.50
2022,02,26,00,34,-10.50
2022,02,26,00,35,-10.50
2022,02,26,00,36,-10.50
2022,02,26,00,37,-10.50
2022,02,26,00,38,-10.50
2022,02,26,00,39,-10.50
2022,02,26,00,40,-10.50
2022,02,26,00,41,-10.50
2022,02,26,00,42,-10.50
2022,02,26,00,43,-10.50
2022,02,26,00,44,-10.50
2022,02,26,00,45,-10.50
2022,02,26,00,46,-10.50
2022,02,26,00,47,-10.50
2022,02,26,00,48,-10.60
2022,02,26,00,49,-10.60
2022,02,26,00,50,-10.60
2022,02,26,00,51,-10.60
2022,02,26,00,52,-10.50
2022,02,26,00,53,-10.60
2022,02,26,00,54,-10.60
2022,02,26,00,55,-10.60
2022,02,26,00,56,-10.60
2022,02,26,00,57,-10.60
2022,02,26,00,58,-10.60
2022,02,26,00,59,-10.60
2022,02,26,01,00,-10.60
2022,02,26,01,01,-10.60
2022,02,26,01,02,-10.60
2022,02,26,01,03,-10.60
2022,02,26,01,04,-10.60
2022,02,26,01,05,-10.60
2022,02,26,01,06,-10.60
2022,02,26,01,07,-10.60
2022,02,26,01,08,-10.60
2022,02,26,01,09,-10.60
2022,02,26,01,10,-10.50
2022,02,26,01,11,-10.50
2022,02,26,01,12,-10.50
2022,02,26,01,13,-10.50
2022,02,26,01,14,-10.50
2022,02,26,01,15,-10.50
2022,02,26,01,16,-10.50
2022,02,26,01,17,-10.50
2022,02,26,01,18,-10.50
2022,02,26,01,19,-10.50
2022,02,26,01,20,-10.50
2022,02,26,01,21,-10.50
2022,02,26,01,22,-10.50
2022,02,26,01,23,-10.50
2022,02,26,01,24,-10.50
2022,02,26,01,25,-10.50
2022,02,26,01,26,-10.50
2022,02,26,01,27,-10.50
2022,02,26,01,28,-10.50
2022,02,26,01,29,-10.40
2022,02,26,01,30,-10.40
2022,02,26,01,31,-10.40
2022,02,26,01,32,-10.40
2022,02,26,01,33,-10.40
2022,02,26,01,34,-10.40
2022,02,26,01,35,-10.50
2022,02,26,01,36,-10.50
2022,02,26,01,37,-10.50
2022,02,26,01,38,-10.50
2022,02,26,01,39,-10.50
2022,02,26,01,40,-10.50
2022,02,26,01,41,-10.50
2022,02,26,01,42,-10.50
2022,02,26,01,43,-10.50
2022,02,26,01,44,-10.50
2022,02,26,01,45,-10.50
2022,02,26,01,46,-10.50
2022,02,26,01,47,-10.50
2022,02,26,01,48,-10.50
2022,02,26,01,49,-10.50
2022,02,26,01,50,-10.50
2022,02,26,01,51,-10.50
2022,02,26,01,52,-10.50
2022,02,26,01,53,-10.50
2022,02,26,01,54,-10.50
2022,02,26,01,55,-10.50
2022,02,26,01,56,-10.50
2022,02,26,01,57,-10.50
2022,02,26,01,58,-10.50
2022,02,26,01,59,-10.40
2022,02,26,02,00,-10.40
2022,02,26,02,01,-10.40
2022,02,26,02,02,-10.40
2022,02,26,02,03,-10.40
2022,02,26,02,04,-10.40
2022,02,26,02,05,-10.40
2022,02,26,02,06,-10.30
2022,02,26,02,07,-10.30
2022,02,26,02,08,-10.30
2022,02,26,02,09,-10.30
2022,02,26,02,10,-10.30
2022,02,26,02,11,-10.30
2022,02,26,02,12,-10.30
2022,02,26,02,13,-10.30
2022,02,26,02,14,-10.30
2022,02,26,02,15,-10.30
2022,02,26,02,16,-10.30
2022,02,26,02,17,-10.30
2022,02,26,02,18,-10.30
2022,02,26,02,19,-10.30
2022,02,26,02,20,-10.30
2022,02,26,02,21,-10.30
2022,02,26,02,22,-10.30
2022,02,26,02,23,-10.30
2022,02,26,02,24,-10.30
2022,02,26,02,25,-10.30
2022,02,26,02,26,-10.30
2022,02,26,02,27,-10.30
2022,02,26,02,28,-10.30
2022,02,26,02,29,-10.30
2022,02,26,02,30,-10.30
2022,02,26,02,31,-10.30
2022,02,26,02,32,-10.20
2022,02,26,02,33,-10.20
2022,02,26,02,34,-10.20
2022,02,26,02,35,-10.20
2022,02,26,02,36,-10.20
2022,02,26,02,37,-10.20
2022,02,26,02,38,-10.20
2022,02,26,02,39,-10.20
2022,02,26,02,40,-10.20
2022,02,26,02,41,-10.20
2022,02,26,02,42,-10.20
2022,02,26,02,43,-10.10
2022,02,26,02,44,-10.10
2022,02,26,02,45,-10.10
2022,02,26,02,46,-10.10
2022,02,26,02,47,-10.10
2022,02,26,02,48,-10.10
2022,02,26,02,49,-10.10
2022,02,26,02,50,-10.10
2022,02,26,02,51,-10.10
2022,02,26,02,52,-10.20
2022,02,26,02,53,-10.20
2022,02,26,02,54,-10.20
2022,02,26,02,55,-10.10
2022,02,26,02,56,-10.20
2022,02,26,02,57,-10.10
2022,02,26,02,58,-10.10
2022,02,26,02,59,-10.10
2022,02,26,03,00,-10.10
2022,02,26,03,01,-10.00
2022,02,26,03,02,-10.00
2022,02,26,03,03,-10.00
2022,02,26,03,04,-10.00
2022,02,26,03,05,-9.90
2022,02,26,03,06,-9.90
2022,02,26,03,07,-9.90
2022,02,26,03,08,-9.90
2022,02,26,03,09,-9.90
2022,02,26,03,10,-9.90
2022,02,26,03,11,-9.90
2022,02,26,03,12,-9.90
2022,02,26,03,13,-9.90
2022,02,26,03,14,-10.00
2022,02,26,03,15,-10.00
2022,02,26,03,16,-10.00
2022,02,26,03,17,-10.00
2022,02,26,03,18,-10.00
2022,02,26,03,19,-10.00
2022,02,26,03,20,-10.00
2022,02,26,03,21,-10.00
2022,02,26,03,22,-9.90
2022,02,26,03,23,-10.00
2022,02,26,03,24,-10.00
2022,02,26,03,25,-10.00
2022,02,26,03,26,-10.00
2022,02,26,03,27,-10.00
2022,02,26,03,28,-10.00
2022,02,26,03,29,-10.00
2022,02,26,03,30,-10.00
2022,02,26,03,31,-10.00
2022,02,26,03,32,-10.00
2022,02,26,03,33,-10.00
2022,02,26,03,34,-10.00
2022,02,26,03,35,-10.00
2022,02,26,03,36,-10.00
2022,02,26,03,37,-9.90
2022,02,26,03,38,-9.90
2022,02,26,03,39,-9.90
2022,02,26,03,40,-9.90
2022,02,26,03,41,-10.00
2022,02,26,03,42,-10.00
2022,02,26,03,43,-10.00
2022,02,26,03,44,-10.00
2022,02,26,03,45,-10.00
2022,02,26,03,46,-10.00
2022,02,26,03,47,-10.00
2022,02,26,03,48,-10.00
2022,02,26,03,49,-10.00
2022,02,26,03,50,-10.00
2022,02,26,03,51,-10.00
2022,02,26,03,52,-10.00
2022,02,26,03,53,-10.00
2022,02,26,03,54,-10.00
2022,02,26,03,55,-10.00
2022,02,26,03,56,-10.00
2022,02,26,03,57,-10.00
2022,02,26,03,58,-10.00
2022,02,26,03,59,-10.00
2022,02,26,04,00,-10.00
2022,02,26,04,01,-10.00
2022,02,26,04,02,-9.90
2022,02,26,04,03,-9.90
2022,02,26,04,04,-9.90
2022,02,26,04,05,-9.90
2022,02,26,04,06,-9.90
2022,02,26,04,07,-9.90
2022,02,26,04,08,-9.90
2022,02,26,04,09,-9.90
2022,02,26,04,10,-9.90
2022,02,26,04,11,-9.90
2022,02,26,04,12,-9.90
2022,02,26,04,13,-9.90
2022,02,26,04,14,-9.90
2022,02,26,04,15,-9.90
2022,02,26,04,16,-9.90
2022,02,26,04,17,-9.90
2022,02,26,04,18,-9.90
2022,02,26,04,19,-9.90
2022,02,26,04,20,-9.90
2022,02,26,04,21,-9.90
2022,02,26,04,22,-9.90
2022,02,26,04,23,-9.90
2022,02,26,04,24,-9.90
2022,02,26,04,25,-9.90
2022,02,26,04,26,-9.90
2022,02,26,04,27,-9.90
2022,02,26,04,28,-9.90
2022,02,26,04,29,-9.90
2022,02,26,04,30,-9.90
2022,02,26,04,31,-9.90
2022,02,26,04,32,-9.80
2022,02,26,04,33,-9.80
2022,02,26,04,34,-9.80
2022,02,26,04,35,-9.80
2022,02,26,04,36,-9.80
2022,02,26,04,37,-9.80
2022,02,26,04,38,-9.80
2022,02,26,04,39,-9.80
2022,02,26,04,40,-9.80
2022,02,26,04,41,-9.80
2022,02,26,04,42,-9.80
2022,02,26,04,43,-9.80
2022,02,26,04,44,-9.80
2022,02,26,04,45,-9.70
2022,02,26,04,46,-9.70
2022,02,26,04,47,-9.70
2022,02,26,04,48,-9.70
2022,02,26,04,49,-9.70
2022,02,26,04,50,-9.70
2022,02,26,04,51,-9.70
2022,02,26,04,52,-9.70
2022,02,26,04,53,-9.70
2022,02,26,04,54,-9.70
2022,02,26,04,55,-9.60
2022,02,26,04,56,-9.60
2022,02,26,04,57,-9.60
2022,02,26,04,58,-9.60
2022,02,26,04,59,-9.60
2022,02,26,05,00,-9.60
2022,02,26,05,01,-9.60
2022,02,26,05,02,-9.60
2022,02,26,05,03,-9.60
2022,02,26,05,04,-9.50
2022,02,26,05,05,-9.50
2022,02,26,05,06,-9.50
2022,02,26,05,07,-9.50
2022,02,26,05,08,-9.50
2022,02,26,05,09,-9.50
2022,02,26,05,10,-9.50
2022,02,26,05,11,-9.50
2022,02,26,05,12,-9.50
2022,02,26,05,13,-9.60
2022,02,26,05,14,-9.60
2022,02,26,05,15,-9.60
2022,02,26,05,16,-9.60
2022,02,26,05,17,-9.60
2022,02,26,05,18,-9.60
2022,02,26,05,19,-9.50
2022,02,26,05,20,-9.50
2022,02,26,05,21,-9.50
2022,02,26,05,22,-9.50
2022,02,26,05,23,-9.50
2022,02,26,05,24,-9.50
2022,02,26,05,25,-9.50
2022,02,26,05,26,-9.50
2022,02,26,05,27,-9.50
2022,02,26,05,28,-9.50
2022,02,26,05,29,-9.50
2022,02,26,05,30,-9.50
2022,02,26,05,31,-9.50
2022,02,26,05,32,-9.50
2022,02,26,05,33,-9.50
2022,02,26,05,34,-9.50
2022,02,26,05,35,-9.50
2022,02,26,05,36,-9.40
2022,02,26,05,37,-9.40
2022,02,26,05,38,-9.40
2022,02,26,05,39,-9.40
2022,02,26,05,40,-9.40
2022,02,26,05,41,-9.40
2022,02,26,05,42,-9.40
2022,02,26,05,43,-9.40
2022,02,26,05,44,-9.40
2022,02,26,05,45,-9.40
2022,02,26,05,46,-9.40
2022,02,26,05,47,-9.40
2022,02,26,05,48,-9.40
2022,02,26,05,49,-9.40
2022,02,26,05,50,-9.40
2022,02,26,05,51,-9.40
2022,02,26,05,52,-9.40
2022,02,26,05,53,-9.40
2022,02,26,05,54,-9.40
2022,02,26,05,55,-9.40
2022,02,26,05,56,-9.40
2022,02,26,05,57,-9.40
2022,02,26,05,58,-9.40
2022,02,26,05,59,-9.40
2022,02,26,06,00,-9.40
2022,02,26,06,01,-9.40
2022,02,26,06,02,-9.40
2022,02,26,06,03,-9.40
2022,02,26,06,04,-9.40
2022,02,26,06,05,-9.40
2022,02,26,06,06,-9.40
2022,02,26,06,07,-9.40
2022,02,26,06,08,-9.40
2022,02,26,06,09,-9.40
2022,02,26,06,10,-9.40
2022,02,26,06,11,-9.40
2022,02,26,06,12,-9.40
2022,02,26,06,13,-9.30
2022,02,26,06,14,-9.30
2022,02,26,06,15,-9.30
2022,02,26,06,16,-9.30
2022,02,26,06,17,-9.30
2022,02,26,06,18,-9.30
2022,02,26,06,19,-9.30
2022,02,26,06,20,-9.30
2022,02,26,06,21,-9.30
2022,02,26,06,22,-9.30
2022,02,26,06,23,-9.30
2022,02,26,06,24,-9.30
2022,02,26,06,25,-9.30
2022,02,26,06,26,-9.30
2022,02,26,06,27,-9.30
2022,02,26,06,28,-9.30
2022,02,26,06,29,-9.30
2022,02,26,06,30,-9.30
2022,02,26,06,31,-9.30
2022,02,26,06,32,-9.30
2022,02,26,06,33,-9.30
2022,02,26,06,34,-9.30
2022,02,26,06,35,-9.30
2022,02,26,06,36,-9.30
2022,02,26,06,37,-9.30
2022,02,26,06,38,-9.30
2022,02,26,06,39,-9.30
2022,02,26,06,40,-9.30
2022,02,26,06,41,-9.30
2022,02,26,06,42,-9.20
2022,02,26,06,43,-9.30
2022,02,26,06,44,-9.20
2022,02,26,06,45,-9.20
2022,02,26,06,46,-9.20
2022,02,26,06,47,-9.20
2022,02,26,06,48,-9.20
2022,02,26,06,49,-9.20
2022,02,26,06,50,-9.20
2022,02,26,06,51,-9.20
2022,02,26,06,52,-9.20
2022,02,26,06,53,-9.20
2022,02,26,06,54,-9.20
2022,02,26,06,55,-9.20
2022,02,26,06,56,-9.20
2022,02,26,06,57,-9.20
2022,02,26,06,58,-9.20
2022,02,26,06,59,-9.10
2022,02,26,07,00,-9.10
2022,02,26,07,01,-9.10
2022,02,26,07,02,-9.10
2022,02,26,07,03,-9.10
2022,02,26,07,04,-9.10
2022,02,26,07,05,-9.10
2022,02,26,07,06,-9.10
2022,02,26,07,07,-9.10
2022,02,26,07,08,-9.20
2022,02,26,07,09,-9.20
2022,02,26,07,10,-9.20
2022,02,26,07,11,-9.20
2022,02,26,07,12,-9.20
2022,02,26,07,13,-9.20
2022,02,26,07,14,-9.20
2022,02,26,07,15,-9.20
2022,02,26,07,16,-9.20
2022,02,26,07,17,-9.20
2022,02,26,07,18,-9.20
2022,02,26,07,19,-9.20
2022,02,26,07,20,-9.20
2022,02,26,07,21,-9.20
2022,02,26,07,22,-9.20
2022,02,26,07,23,-9.20
2022,02,26,07,24,-9.10
2022,02,26,07,25,-9.10
2022,02,26,07,26,-9.10
2022,02,26,07,27,-9.10
2022,02,26,07,28,-9.10
2022,02,26,07,29,-9.10
2022,02,26,07,30,-9.10
2022,02,26,07,31,-9.10
2022,02,26,07,32,-9.00
2022,02,26,07,33,-9.00
2022,02,26,07,34,-9.00
2022,02,26,07,35,-9.00
2022,02,26,07,36,-9.00
2022,02,26,07,37,-8.90
2022,02,26,07,38,-8.90
2022,02,26,07,39,-8.90
2022,02,26,07,40,-8.90
2022,02,26,07,41,-8.90
2022,02,26,07,42,-8.90
2022,02,26,07,43,-8.90
2022,02,26,07,44,-8.90
2022,02,26,07,45,-8.90
2022,02,26,07,46,-8.90
2022,02,26,07,47,-8.80
2022,02,26,07,48,-8.80
2022,02,26,07,49,-8.80
2022,02,26,07,50,-8.80
2022,02,26,07,51,-8.80
2022,02,26,07,52,-8.80
2022,02,26,07,53,-8.80
2022,02,26,07,54,-8.80
2022,02,26,07,55,-8.80
2022,02,26,07,56,-8.80
2022,02,26,07,57,-8.80
2022,02,26,07,58,-8.80
2022,02,26,07,59,-8.80
2022,02,26,08,00,-8.80
2022,02,26,08,01,-8.80
2022,02,26,08,02,-8.80
2022,02,26,08,03,-8.80
2022,02,26,08,04,-8.80
2022,02,26,08,05,-8.80
2022,02,26,08,06,-8.80
2022,02,26,08,07,-8.80
2022,02,26,08,08,-8.80
2022,02,26,08,09,-8.80
2022,02,26,08,10,-8.80
2022,02,26,08,11,-8.80
2022,02,26,08,12,-8.90
2022,02,26,08,13,-8.90
2022,02,26,08,14,-8.90
2022,02,26,08,15,-8.90
2022,02,26,08,16,-8.90
2022,02,26,08,17,-8.90
2022,02,26,08,18,-8.90
2022,02,26,08,19,-8.90
2022,02,26,08,20,-8.90
2022,02,26,08,21,-9.00
2022,02,26,08,22,-9.00
2022,02,26,08,23,-9.00
2022,02,26,08,24,-9.00
2022,02,26,08,25,-9.00
2022,02,26,08,26,-9.10
2022,02,26,08,27,-9.10
2022,02,26,08,28,-9.10
2022,02,26,08,29,-9.10
2022,02,26,08,30,-9.10
2022,02,26,08,31,-9.20
2022,02,26,08,32,-9.20
2022,02,26,08,33,-9.20
2022,02,26,08,34,-9.20
2022,02,26,08,35,-9.20
2022,02,26,08,36,-9.20
2022,02,26,08,37,-9.20
2022,02,26,08,38,-9.30
2022,02,26,08,39,-9.30
2022,02,26,08,40,-9.30
2022,02,26,08,41,-9.30
2022,02,26,08,42,-9.30
2022,02,26,08,43,-9.30
2022,02,26,08,44,-9.30
2022,02,26,08,45,-9.30
2022,02,26,08,46,-9.30
2022,02,26,08,47,-9.30
2022,02,26,08,48,-9.30
2022,02,26,08,49,-9.30
2022,02,26,08,50,-9.30
2022,02,26,08,51,-9.30
2022,02,26,08,52,-9.30
2022,02,26,08,53,-9.40
2022,02,26,08,54,-9.40
2022,02,26,08,55,-9.40
2022,02,26,08,56,-9.40
2022,02,26,08,57,-9.40
2022,02,26,08,58,-9.40
2022,02,26,08,59,-9.40
2022,02,26,09,00,-9.40
2022,02,26,09,01,-9.40
2022,02,26,09,02,-9.40
2022,02,26,09,03,-9.40
2022,02,26,09,04,-9.40
2022,02,26,09,05,-9.40
2022,02,26,09,06,-9.40
2022,02,26,09,07,-9.40
2022,02,26,09,08,-9.40
2022,02,26,09,09,-9.40
2022,02,26,09,10,-9.30
2022,02,26,09,11,-9.30
2022,02,26,09,12,-9.30
2022,02,26,09,13,-9.30
2022,02,26,09,14,-9.20
2022,02,26,09,15,-9.20
2022,02,26,09,16,-9.10
2022,02,26,09,17,-9.10
2022,02,26,09,18,-9.10
2022,02,26,09,19,-9.10
2022,02,26,09,20,-9.10
2022,02,26,09,21,-9.00
2022,02,26,09,22,-9.00
2022,02,26,09,23,-9.00
2022,02,26,09,24,-9.00
2022,02,26,09,25,-9.00
2022,02,26,09,26,-9.00
2022,02,26,09,27,-9.00
2022,02,26,09,28,-8.90
2022,02,26,09,29,-8.90
2022,02,26,09,30,-8.90
2022,02,26,09,31,-8.80
2022,02,26,09,32,-8.80
2022,02,26,09,33,-8.80
2022,02,26,09,34,-8.80
2022,02,26,09,35,-8.80
2022,02,26,09,36,-8.80
2022,02,26,09,37,-8.80
2022,02,26,09,38,-8.80
2022,02,26,09,39,-8.80
2022,02,26,09,40,-8.70
2022,02,26,09,41,-8.70
2022,02,26,09,42,-8.70
2022,02,26,09,43,-8.70
2022,02,26,09,44,-8.70
2022,02,26,09,45,-8.70
2022,02,26,09,46,-8.70
2022,02,26,09,47,-8.70
2022,02,26,09,48,-8.70
2022,02,26,09,49,-8.70
2022,02,26,09,50,-8.70
2022,02,26,09,51,-8.70
2022,02,26,09,52,-8.60
2022,02,26,09,53,-8.60
2022,02,26,09,54,-8.60
2022,02,26,09,55,-8.60
2022,02,26,09,56,-8.60
2022,02,26,09,57,-8.60
2022,02,26,09,58,-8.60
2022,02,26,09,59,-8.50
2022,02,26,10,00,-8.50
2022,02,26,10,01,-8.50
2022,02,26,10,02,-8.50
2022,02,26,10,03,-8.50
2022,02,26,10,04,-8.50
2022,02,26,10,05,-8.50
2022,02,26,10,06,-8.40
2022,02,26,10,07,-8.40
2022,02,26,10,08,-8.40
2022,02,26,10,09,-8.40
2022,02,26,10,10,-8.40
2022,02,26,10,11,-8.40
2022,02,26,10,12,-8.40
2022,02,26,10,13,-8.40
2022,02,26,10,14,-8.40
2022,02,26,10,15,-8.40
2022,02,26,10,16,-8.40
2022,02,26,10,17,-8.30
2022,02,26,10,18,-8.30
2022,02,26,10,19,-8.30
2022,02,26,10,20,-8.30
2022,02,26,10,21,-8.30
2022,02,26,10,22,-8.30
2022,02,26,10,23,-8.30
2022,02,26,10,24,-8.20
2022,02,26,10,25,-8.20
2022,02,26,10,26,-8.20
2022,02,26,10,27,-8.20
2022,02,26,10,28,-8.20
2022,02,26,10,29,-8.20
2022,02,26,10,30,-8.20
2022,02,26,10,31,-8.20
2022,02,26,10,32,-8.10
2022,02,26,10,33,-8.10
2022,02,26,10,34,-8.10
2022,02,26,10,35,-8.10
2022,02,26,10,36,-8.10
2022,02,26,10,37,-8.10
2022,02,26,10,38,-8.00
2022,02,26,10,39,-8.00
2022,02,26,10,40,-7.90
2022,02,26,10,41,-7.90
2022,02,26,10,42,-7.90
2022,02,26,10,43,-7.90
2022,02,26,10,44,-7.90
2022,02,26,10,45,-7.90
2022,02,26,10,46,-7.90
2022,02,26,10,47,-7.80
2022,02,26,10,48,-7.80
2022,02,26,10,49,-7.80
2022,02,26,10,50,-7.80
2022,02,26,10,51,-7.70
2022,02,26,10,52,-7.70
2022,02,26,10,53,-7.70
2022,02,26,10,54,-7.70
2022,02,26,10,55,-7.70
2022,02,26,10,56,-7.70
2022,02,26,10,57,-7.70
2022,02,26,10,58,-7.70
2022,02,26,10,59,-7.60
2022,02,26,11,00,-7.60
2022,02,26,11,01,-7.60
2022,02,26,11,02,-7.60
2022,02,26,11,03,-7.60
2022,02,26,11,04,-7.60
2022,02,26,11,05,-7.60
2022,02,26,11,06,-7.60
2022,02,26,11,07,-7.60
2022,02,26,11,08,-7.60
2022,02,26,11,09,-7.60
2022,02,26,11,10,-7.60
2022,02,26,11,11,-7.60
2022,02,26,11,12,-7.60
2022,02,26,11,13,-7.60
2022,02,26,11,14,-7.60
2022,02,26,11,15,-7.50
2022,02,26,11,16,-7.50
2022,02,26,11,17,-7.50
2022,02,26,11,18,-7.50
2022,02,26,11,19,-7.50
2022,02,26,11,20,-7.50
2022,02,26,11,21,-7.50
2022,02,26,11,22,-7.40
2022,02,26,11,23,-7.40
2022,02,26,11,24,-7.40
2022,02,26,11,25,-7.40
2022,02,26,11,26,-7.40
2022,02,26,11,27,-7.40
2022,02,26,11,28,-7.40
2022,02,26,11,29,-7.40
2022,02,26,11,30,-7.30
2022,02,26,11,31,-7.30
2022,02,26,11,32,-7.30
2022,02,26,11,33,-7.30
2022,02,26,11,34,-7.30
2022,02,26,11,35,-7.30
2022,02,26,11,36,-7.30
2022,02,26,11,37,-7.30
2022,02,26,11,38,-7.30
2022,02,26,11,39,-7.30
2022,02,26,11,40,-7.30
2022,02,26,11,41,-7.30
2022,02,26,11,42,-7.30
2022,02,26,11,43,-7.30
2022,02,26,11,44,-7.20
2022,02,26,11,45,-7.20
2022,02,26,11,46,-7.20
2022,02,26,11,47,-7.20
2022,02,26,11,48,-7.20
2022,02,26,11,49,-7.20
2022,02,26,11,50,-7.20
2022,02,26,11,51,-7.20
2022,02,26,11,52,-7.10
2022,02,26,11,53,-7.10
2022,02,26,11,54,-7.10
2022,02,26,11,55,-7.10
2022,02,26,11,56,-7.10
2022,02,26,11,57,-7.00
2022,02,26,11,58,-7.00
2022,02,26,11,59,-7.00
2022,02,26,12,00,-7.00
2022,02,26,12,01,-7.00
2022,02,26,12,02,-6.90
2022,02,26,12,03,-6.90
2022,02,26,12,04,-6.90
2022,02,26,12,05,-6.90
2022,02,26,12,06,-6.80
2022,02,26,12,07,-6.80
2022,02,26,12,08,-6.80
2022,02,26,12,09,-6.80
2022,02,26,12,10,-6.80
2022,02,26,12,11,-6.80
2022,02,26,12,12,-6.80
2022,02,26,12,13,-6.80
2022,02,26,12,14,-6.80
2022,02,26,12,15,-6.70
2022,02,26,12,16,-6.70
2022,02,26,12,17,-6.70
2022,02,26,12,18,-6.70
2022,02,26,12,19,-6.70
2022,02,26,12,20,-6.70
2022,02,26,12,21,-6.70
2022,02,26,12,22,-6.60
2022,02,26,12,23,-6.60
2022,02,26,12,24,-6.60
2022,02,26,12,25,-6.60
2022,02,26,12,26,-6.60
2022,02,26,12,27,-6.50
2022,02,26,12,28,-6.50
2022,02,26,12,29,-6.50
2022,02,26,12,30,-6.40
2022,02,26,12,31,-6.40
2022,02,26,12,32,-6.40
2022,02,26,12,33,-6.40
2022,02,26,12,34,-6.40
2022,02,26,12,35,-6.40
2022,02,26,12,36,-6.40
2022,02,26,12,37,-6.40
2022,02,26,12,38,-6.40
2022,02,26,12,39,-6.40
2022,02,26,12,40,-6.40
2022,02,26,12,41,-6.30
2022,02,26,12,42,-6.30
2022,02,26,12,43,-6.30
2022,02,26,12,44,-6.30
2022,02,26,12,45,-6.30
2022,02,26,12,46,-6.30
2022,02,26,12,47,-6.30
2022,02,26,12,48,-6.30
2022,02,26,12,49,-6.30
2022,02,26,12,50,-6.30
2022,02,26,12,51,-6.30
2022,02,26,12,52,-6.30
2022,02,26,12,53,-6.30
2022,02,26,12,54,-6.30
2022,02,26,12,55,-6.30
2022,02,26,12,56,-6.30
2022,02,26,12,57,-6.20
2022,02,26,12,58,-6.20
2022,02,26,12,59,-6.20
2022,02,26,13,00,-6.20
2022,02,26,13,01,-6.20
2022,02,26,13,02,-6.20
2022,02,26,13,03,-6.20
2022,02,26,13,04,-6.10
2022,02,26,13,05,-6.10
2022,02,26,13,06,-6.10
2022,02,26,13,07,-6.10
2022,02,26,13,08,-6.10
2022,02,26,13,09,-6.10
2022,02,26,13,10,-6.00
2022,02,26,13,11,-6.00
2022,02,26,13,12,-6.00
2022,02,26,13,13,-5.90
2022,02,26,13,14,-5.90
2022,02,26,13,15,-5.90
2022,02,26,13,16,-5.80
2022,02,26,13,17,-5.80
2022,02,26,13,18,-5.80
2022,02,26,13,19,-5.70
2022,02,26,13,20,-5.70
2022,02,26,13,21,-5.70
2022,02,26,13,22,-5.60
2022,02,26,13,23,-5.60
2022,02,26,13,24,-5.50
2022,02,26,13,25,-5.40
2022,02,26,13,26,-5.30
2022,02,26,13,27,-5.20
2022,02,26,13,28,-5.10
2022,02,26,13,29,-5.00
2022,02,26,13,30,-4.90
2022,02,26,13,31,-4.80
2022,02,26,13,32,-4.80
2022,02,26,13,33,-4.70
2022,02,26,13,34,-4.70
2022,02,26,13,35,-4.70
2022,02,26,13,36,-4.70
2022,02,26,13,37,-4.70
2022,02,26,13,38,-4.70
2022,02,26,13,39,-4.70
2022,02,26,13,40,-4.70
2022,02,26,13,41,-4.70
2022,02,26,13,42,-4.70
2022,02,26,13,43,-4.70
2022,02,26,13,44,-4.60
2022,02,26,13,45,-4.60
2022,02,26,13,46,-4.60
2022,02,26,13,47,-4.60
2022,02,26,13,48,-4.60
2022,02,26,13,49,-4.60
2022,02,26,13,50,-4.60
2022,02,26,13,51,-4.50
2022,02,26,13,52,-4.50
2022,02,26,13,53,-4.50
2022,02,26,13,54,-4.40
2022,02,26,13,55,-4.40
2022,02,26,13,56,-4.40
2022,02,26,13,57,-4.40
2022,02,26,13,58,-4.40
2022,02,26,13,59,-4.40
2022,02,26,14,00,-4.40
2022,02,26,14,01,-4.40
2022,02,26,14,02,-4.40
2022,02,26,14,03,-4.40
2022,02,26,14,04,-4.40
2022,02,26,14,05,-4.40
2022,02,26,14,06,-4.30
2022,02,26,14,07,-4.30
2022,02,26,14,08,-4.30
2022,02,26,14,09,-4.30
2022,02,26,14,10,-4.30
2022,02,26,14,11,-4.20
2022,02,26,14,12,-4.20
2022,02,26,14,13,-4.20
2022,02,26,14,14,-4.20
2022,02,26,14,15,-4.10
2022,02,26,14,16,-4.10
2022,02,26,14,17,-4.10
2022,02,26,14,18,-4.00
2022,02,26,14,19,-4.00
2022,02,26,14,20,-4.00
2022,02,26,14,21,-4.00
2022,02,26,14,22,-4.00
2022,02,26,14,23,-4.00
2022,02,26,14,24,-4.00
2022,02,26,14,25,-3.90
2022,02,26,14,26,-3.90
2022,02,26,14,27,-3.90
2022,02,26,14,28,-3.90
2022,02,26,14,29,-3.90
2022,02,26,14,30,-4.00
2022,02,26,14,31,-4.00
2022,02,26,14,32,-4.00
2022,02,26,14,33,-4.10
2022,02,26,14,34,-4.10
2022,02,26,14,35,-4.10
2022,02,26,14,36,-4.10
2022,02,26,14,37,-4.20
2022,02,26,14,38,-4.20
2022,02,26,14,39,-4.20
2022,02,26,14,40,-4.20
2022,02,26,14,41,-4.30
2022,02,26,14,42,-4.30
2022,02,26,14,43,-4.30
2022,02,26,14,44,-4.30
2022,02,26,14,45,-4.40
2022,02,26,14,46,-4.40
2022,02,26,14,47,-4.40
2022,02,26,14,48,-4.40
2022,02,26,14,49,-4.50
2022,02,26,14,50,-4.50
2022,02,26,14,51,-4.50
2022,02,26,14,52,-4.50
2022,02,26,14,53,-4.50
2022,02,26,14,54,-4.50
2022,02,26,14,55,-4.40
2022,02,26,14,56,-4.40
2022,02,26,14,57,-4.40
2022,02,26,14,58,-4.40
2022,02,26,14,59,-4.40
2022,02,26,15,00,-4.40
2022,02,26,15,01,-4.40
2022,02,26,15,02,-4.40
2022,02,26,15,03,-4.40
2022,02,26,15,04,-4.40
2022,02,26,15,05,-4.30
2022,02,26,15,06,-4.30
2022,02,26,15,07,-4.30
2022,02,26,15,08,-4.30
2022,02,26,15,09,-4.30
2022,02,26,15,10,-4.30
2022,02,26,15,11,-4.30
2022,02,26,15,12,-4.30
2022,02,26,15,13,-4.30
2022,02,26,15,14,-4.30
2022,02,26,15,15,-4.30
2022,02,26,15,16,-4.30
2022,02,26,15,17,-4.30
2022,02,26,15,18,-4.30
2022,02,26,15,19,-4.30
2022,02,26,15,20,-4.30
2022,02,26,15,21,-4.30
2022,02,26,15,22,-4.30
2022,02,26,15,23,-4.40
2022,02,26,15,24,-4.40
2022,02,26,15,25,-4.40
2022,02,26,15,26,-4.40
2022,02,26,15,27,-4.30
2022,02,26,15,28,-4.30
2022,02,26,15,29,-4.30
2022,02,26,15,30,-4.30
2022,02,26,15,31,-4.30
2022,02,26,15,32,-4.30
2022,02,26,15,33,-4.30
2022,02,26,15,34,-4.30
2022,02,26,15,35,-4.20
2022,02,26,15,36,-4.20
2022,02,26,15,37,-4.20
2022,02,26,15,38,-4.20
2022,02,26,15,39,-4.20
2022,02,26,15,40,-4.10
2022,02,26,15,41,-4.10
2022,02,26,15,42,-4.10
2022,02,26,15,43,-4.10
2022,02,26,15,44,-4.10
2022,02,26,15,45,-4.10
2022,02,26,15,46,-4.00
2022,02,26,15,47,-4.00
2022,02,26,15,48,-4.00
2022,02,26,15,49,-3.90
2022,02,26,15,50,-3.90
2022,02,26,15,51,-3.90
2022,02,26,15,52,-3.90
2022,02,26,15,53,-3.90
2022,02,26,15,54,-3.80
2022,02,26,15,55,-3.80
2022,02,26,15,56,-3.80
2022,02,26,15,57,-3.80
2022,02,26,15,58,-3.80
2022,02,26,15,59,-3.80
2022,02,26,16,00,-3.70
2022,02,26,16,01,-3.70
2022,02,26,16,02,-3.70
2022,02,26,16,03,-3.70
2022,02,26,16,04,-3.70
2022,02,26,16,05,-3.70
2022,02,26,16,06,-3.70
2022,02,26,16,07,-3.60
2022,02,26,16,08,-3.60
2022,02,26,16,09,-3.60
2022,02,26,16,10,-3.60
2022,02,26,16,11,-3.60
2022,02,26,16,12,-3.60
2022,02,26,16,13,-3.60
2022,02,26,16,14,-3.60
2022,02,26,16,15,-3.50
2022,02,26,16,16,-3.50
2022,02,26,16,17,-3.50
2022,02,26,16,18,-3.50
2022,02,26,16,19,-3.50
2022,02,26,16,20,-3.50
2022,02,26,16,21,-3.40
2022,02,26,16,22,-3.40
2022,02,26,16,23,-3.40
2022,02,26,16,24,-3.40
2022,02,26,16,25,-3.40
2022,02,26,16,26,-3.40
2022,02,26,16,27,-3.40
2022,02,26,16,28,-3.40
2022,02,26,16,29,-3.40
2022,02,26,16,30,-3.40
2022,02,26,16,31,-3.40
2022,02,26,16,32,-3.40
2022,02,26,16,33,-3.40
2022,02,26,16,34,-3.40
2022,02,26,16,35,-3.40
2022,02,26,16,36,-3.40
2022,02,26,16,37,-3.40
2022,02,26,16,38,-3.40
2022,02,26,16,39,-3.40
2022,02,26,16,40,-3.40
2022,02,26,16,41,-3.40
2022,02,26,16,42,-3.40
2022,02,26,16,43,-3.40
2022,02,26,16,44,-3.40
2022,02,26,16,45,-3.40
2022,02,26,16,46,-3.40
2022,02,26,16,47,-3.40
2022,02,26,16,48,-3.40
2022,02,26,16,49,-3.40
2022,02,26,16,50,-3.40
2022,02,26,16,51,-3.40
2022,02,26,16,52,-3.40
2022,02,26,16,53,-3.40
2022,02,26,16,54,-3.40
2022,02,26,16,55,-3.40
2022,02,26,16,56,-3.40
2022,02,26,16,57,-3.40
2022,02,26,16,58,-3.40
2022,02,26,16,59,-3.40
2022,02,26,17,00,-3.40
2022,02,26,17,01,-3.40
2022,02,26,17,02,-3.40
2022,02,26,17,03,-3.40
2022,02,26,17,04,-3.40
2022,02,26,17,05,-3.40
2022,02,26,17,06,-3.40
2022,02,26,17,07,-3.50
2022,02,26,17,08,-3.50
2022,02,26,17,09,-3.50